Location: Glens Falls
(43.3090°N, 73.6440°W)
Time: 10:11:53
(UTC-04:00)

Cosmos 2151 Rocket - Pass Details

Date: 24 February 2018
Orbit: 617 x 643 km, 82.5° (Epoch: 20 June)

Event Time Altitude Azimuth Distance (km) Brightness Sun altitude
Rises 19:58:26 0° 198° (SSW) 2,922 7.1 -26.3°
Reaches altitude 10° 20:00:43 10° 203° (SSW) 2,015 6.3 -26.7°
Maximum altitude 20:05:05 54° 281° (W) 774 4.3 -27.5°
Drops below altitude 10° 20:09:28 10° 359° (N) 2,014 6.3 -28.2°
Sets 20:11:45 0° 4° (N) 2,921 7.2 -28.6°
